Regional Weather Roundup
Issued by NWS

Home | Current Version | Previous Version | Text Only | Print | Product List | Glossary On
Versions: 1 2 3 4 5 6 7 8 9 10 11 12 13 14 15 16 17 18 19 20 21 22 23 24 25 26 27 28 29 30 31 32 33 34 35 36 37 38 39 40 41 42 43 44 45 46 47 48 49 50
000
ASHW40 PHFO 290610
RWRHI

WEATHER ROUNDUP FOR HAWAII
NATIONAL WEATHER SERVICE HONOLULU HI
800 PM HST THU AUG 28 2014

THIS IS AN AUTOMATED REPORT THAT HAS NOT BEEN QUALITY CONTROLLED.

NOTE..."FAIR" INDICATES FEW OR NO CLOUDS BELOW 12,000 FEET WITH NO
SIGNIFICANT WEATHER AND/OR OBSTRUCTIONS TO VISIBILITY.

* - THESE SITES REPORT LIMITED FIELDS

HIZ001>004-290700-
KAUAI-NIIHAU-

CITY           SKY/WX    TMP DP  RH WIND       PRES   REMARKS
LIHUE APT      PTCLDY    78  69  73 NE12      29.91R
PORT ALLEN*      N/A     79 N/A N/A E8          N/A
POIPU*           N/A     77 N/A N/A NE6G13      N/A
PRINCEVILLE*   NOT AVBL
KOKOLE POINT*  NOT AVBL
MOLOAA DAIRY*  NOT AVBL
WAIMEA HTS*    NOT AVBL
PUU OPAE*      NOT AVBL
PUU LUA*       NOT AVBL
MAKAHA RIDGE*  NOT AVBL
$$

HIZ005>011-290700-
OAHU-

CITY           SKY/WX    TMP DP  RH WIND       PRES   REMARKS
HONOLULU       PTCLDY    80  67  64 NE5       29.89R
KALAELOA       CLEAR     79  66  64 NE5       29.90R
KANEOHE MCB    MOCLDY    79  70  74 NE7       29.90R
WHEELER FIELD  FAIR      75  67  74 N5        29.91R
BELLOWS*       NOT AVBL
KAHUKU*        NOT AVBL
WHEELER*       NOT AVBL
WAIANAE HARBOR NOT AVBL
DILLINGHAM*      N/A     77  68  73 E2G12       N/A
KAHUKU TRN*      N/A     75  68  78 E6G14       N/A
KAWAILOA*      NOT AVBL
KII*             N/A     79  70  73 NE12        N/A
MAKUA RANGE*     N/A     79  68  69 E5G14       N/A
OAHU FOREST NW NOT AVBL
SCHOFIELD BRK*   N/A     73  66  78 NW1         N/A
SCHOFIELD S*   NOT AVBL
WAIANAE VLY*   NOT AVBL
KUAOKALA*      NOT AVBL
HONOULIUULI*   NOT AVBL
MOKUOLOE IS*     N/A    N/A N/A N/A MISG        N/A
PALEHUA*       NOT AVBL
WAIAWA PHB*    NOT AVBL
$$

HIZ012>013-290700-
MOLOKAI-

CITY           SKY/WX    TMP DP  RH WIND       PRES   REMARKS
MOLOKAI AIRPT  CLEAR     76  72  87 NE8       29.90R
KALAUPAPA      NOT AVBL
MAKAPULAPAI*   NOT AVBL
MOLOKAI 1*     NOT AVBL
PUU ALII*      NOT AVBL
$$

HIZ016-290700-
KAHOOLAWE-

CITY           SKY/WX    TMP DP  RH WIND       PRES   REMARKS
KAHOOLAWE*     NOT AVBL
HAKIOAWA*      NOT AVBL
HONOKANAIA*      N/A     75  70  85 NE12G21     N/A
KANELOA*         N/A     75  70  83 MISG      29.99
KEALIALALO*    NOT AVBL
LUA MAKIKA*    NOT AVBL
$$

HIZ014>015-290700-
LANAI-

CITY           SKY/WX    TMP DP  RH WIND       PRES   REMARKS
LANAI CITY     FAIR      73  67  81 E8G22     29.94R
LANAI 1*       NOT AVBL
$$

HIZ017>028-290700-
MAUI-

CITY           SKY/WX    TMP DP  RH WIND       PRES   REMARKS
KAHULUI        PTCLDY    78  69  73 NE7       29.89R
KAPALUA-W MAUI NOT AVBL
HANA AIRPORT   CLOUDY    73  72  94 CALM      29.92S
HANA*          NOT AVBL
HALEAKALA SUMM   N/A     43  39  87 NE8         N/A
MAALAEA BAY*   NOT AVBL
HALEAKALA*     NOT AVBL
KAUPO GAP*     NOT AVBL
KULA 1*          N/A     53  52  96 SE2         N/A
$$

HIZ023>026-290700-
BIG ISLAND OF HAWAII COAST AND LOWER SLOPES-

CITY           SKY/WX    TMP DP  RH WIND       PRES   REMARKS
KAILUA KONA    MOCLDY    82  67  60 SE12      29.86R
HILO           LGT RAIN  76  70  82 CALM      29.89R
HONOKAA*       NOT AVBL
KAWAIHAE MWT*  NOT AVBL
KAWAIHAE*        N/A     82 N/A N/A W10         N/A
SOUTH POINT*   NOT AVBL
UPOLU AIRPORT* NOT AVBL
KAMUELA*       PTCLDY    64  63  94 NE10      30.00S
HAKALAU*         N/A     48  46  93 W1          N/A
KALOKO-HONOKO* NOT AVBL
PALI 2*          N/A     66  61  82 N10G17      N/A
KEALAKOMO*       N/A     81  68  65 NE7G16      N/A
KAUPULEHU*     NOT AVBL
KAPAPALA*        N/A     67  65  93 CALM        N/A
LOWER KAHUKU*  NOT AVBL
PUHE CS*       NOT AVBL
PUHO CS*       NOT AVBL
PTA KEAMUKU*     N/A     63  59  88 NE9         N/A
WAIKOLOA*      NOT AVBL
$$

HIZ027>028-290700-
BIG ISLAND OF HAWAII INTERIOR AND SUMMMITS-

CITY           SKY/WX    TMP DP  RH WIND       PRES   REMARKS
BRADSHAW FIELD CLOUDY    58  53  83 SE6       30.22R
MK VISITOR CEN NOT AVBL
MAUNA KEA*       N/A     46 -20   5 CALM        N/A
MAUNA LOA*       N/A     50 -15   6 MISG        N/A
MAUNA LOA 1*   NOT AVBL
PTA KIPUKA*      N/A     59  55  88 NW5G10      N/A
PTA RANGE 17*    N/A     57  55  94 SW5         N/A
PTA WEST*        N/A     63  59  88 S7          N/A
NENE CABIN*    NOT AVBL
AHUMOA*        NOT AVBL
PTA PORTABLE*  NOT AVBL
PUU MALI*      NOT AVBL
$$

HIC003-290700-
NORTHWEST ISLANDS-

CITY           SKY/WX    TMP DP  RH WIND       PRES   REMARKS
MIDWAY ISLAND  CLEAR     82  72  69 E14       30.06R
MIDWAY NOS*    NOT AVBL
FRENCH FRIGATE NOT AVBL
$$

PHZ110>124-180-290700-
BUOY REPORTS

STATION/POSITION TIME  TEMP    WIND        PRES    WAVE   SWELL
                       AIR SEA DIR/SP/G            HT/PER HT/DIR
                 (UTC) (F)     (DEG/KT/KT) (MB)    (FT/S) (FT/D)
BUOY 51001       NOT AVBL
BUOY 51101       NOT AVBL
BUOY 51100       0600   78 79   50/ 12/ 14 1012.1
BUOY 51003       0500   81 82  100/ 10/ 12 1011.1R   6/14   5
BUOY 51004       0527   78 81   90/  8/ 10 1011.4R   6/15   7/100
BARBERS PT BUOY  NOT AVBL
WAIMEA BAY BUOY  0600      81                N/A     4/ 8   2/ 30
KAILUA BAY BUOY  0600      81                N/A     5/10   2/150
LANAI BUOY       NOT AVBL
BARBERS PT 2     0600      81                N/A     4/14   3/190
PAUWELA MAUI     0600      80                N/A     6/ 9   2/ 60
HILO             NOT AVBL
KANEOHE BAY BUOY 0600      81                N/A     5/10   2/ 70
HANALEI KAUAI    NOT AVBL
KAHULUI HARBOR   0600   78 82   50/  8/ 11 1012.1R
HONOLULU HARBOR  0600   80      70/  4/  7 1012.3R
KILO NALU        NOT AVBL
HILO HARBOR      0600   76      50/  2/ 12 1011.5R
MOKUOLOE         0600      83              1012.6R
NAWILIWILI       0600      84                N/A
WHOTS BUOY       NOT AVBL
BUOY 51028       NOT AVBL
$$

......................KEY........................................
  SKY/WX - SKY CONDITIONS/PRESENT WEATHER
  TMP    - TEMPERATURE IN FAHRENHEIT
  DWPT   - DEWPOINT IN FAHRENHEIT
  RH     - RELATIVE HUMIDITY IN PERCENT
  WIND   - DIRECTION AND SPEED /MPH FOR ISLANDS...KTS FOR BUOYS/
  PRES   - MEAN SEA LEVEL PRESSURE IN INCHES OF HG
  VSB    - VISIBILITY IN MILES
  HX     - HEAT INDEX
  WCI    - WIND CHILL INDEX
  VRB    - VARIABLE WIND DIRECTION
  N/A    - NOT AVAILABLE



USA.gov is the U.S. government's official web portal to all federal, state and local government web resources and services.